| time (UTC) | temp C | wind direction | speed KPH | gust KPH | rain 1hr cm | rain 24hr cm | rain mn cm | humidity % | barometer mb |
| 20260507051018 | 5 | 0.0 | 1.6 | 0.00 | 0.33 | 0.00 | 87 | 1014.9 | |
| 20260507050019 | 5 | 0.0 | 1.6 | 0.00 | 0.38 | 0.00 | 87 | 1015.0 | |
| 20260507045027 | 6 | 0.0 | 3.2 | 0.00 | 0.41 | 0.00 | 87 | 1015.0 | |
| 20260507044018 | 6 | 0.0 | 0.0 | 0.00 | 0.41 | 0.00 | 86 | 1015.1 | |
| 20260507043018 | 6 | 248 | 1.6 | 4.8 | 0.00 | 0.43 | 0.00 | 86 | 1015.0 |
| 20260507042018 | 6 | 0.0 | 3.2 | 0.00 | 0.43 | 0.00 | 85 | 1015.0 | |
| 20260507041019 | 6 | 0.0 | 0.0 | 0.00 | 0.46 | 0.00 | 84 | 1015.1 | |
| 20260507040019 | 6 | 0.0 | 3.2 | 0.00 | 0.48 | 0.48 | 84 | 1015.2 | |
| 20260507035018 | 6 | 0.0 | 3.2 | 0.00 | 0.48 | 0.48 | 83 | 1015.2 | |
| 20260507034018 | 6 | 0.0 | 0.0 | 0.00 | 0.51 | 0.48 | 81 | 1015.2 | |
| 20260507033038 | 7 | 0.0 | 1.6 | 0.00 | 0.51 | 0.48 | 80 | 1015.1 | |
| 20260507032038 | 7 | 0.0 | 1.6 | 0.00 | 0.53 | 0.48 | 80 | 1015.2 | |
| 20260507031018 | 8 | 0.0 | 0.0 | 0.00 | 0.53 | 0.48 | 79 | 1015.3 | |
| 20260507030018 | 8 | 0.0 | 1.6 | 0.00 | 0.56 | 0.48 | 78 | 1015.4 | |
| 20260507025018 | 8 | 0.0 | 0.0 | 0.00 | 0.61 | 0.48 | 78 | 1015.4 | |
| 20260507024018 | 8 | 0.0 | 3.2 | 0.00 | 0.64 | 0.48 | 77 | 1015.3 | |
| 20260507023018 | 8 | 0.0 | 1.6 | 0.00 | 0.66 | 0.48 | 78 | 1015.4 | |
| 20260507022018 | 8 | 248 | 1.6 | 3.2 | 0.00 | 0.69 | 0.48 | 79 | 1015.3 |
| 20260507021018 | 8 | 0.0 | 0.0 | 0.00 | 0.71 | 0.48 | 78 | 1015.3 | |
| 20260507020018 | 8 | 0.0 | 0.0 | 0.00 | 0.76 | 0.48 | 77 | 1015.3 | |
| 20260507015018 | 8 | 0.0 | 0.0 | 0.00 | 0.81 | 0.48 | 78 | 1015.1 | |
| 20260507014018 | 8 | 0.0 | 1.6 | 0.00 | 0.84 | 0.48 | 76 | 1015.0 | |
| 20260507013018 | 8 | 0.0 | 1.6 | 0.00 | 0.89 | 0.48 | 77 | 1014.9 | |
| 20260507012020 | 8 | 270 | 1.6 | 3.2 | 0.00 | 0.91 | 0.48 | 76 | 1014.7 |
| 20260507010020 | 8 | 0.0 | 1.6 | 0.00 | 0.99 | 0.48 | 75 | 1014.7 | |
| 20260507005018 | 8 | 0.0 | 0.0 | 0.00 | 1.02 | 0.48 | 74 | 1014.6 | |
| 20260507004018 | 8 | 0.0 | 0.0 | 0.00 | 1.04 | 0.48 | 72 | 1014.5 | |
| 20260507003018 | 9 | 0.0 | 0.0 | 0.00 | 1.07 | 0.48 | 69 | 1014.5 | |
| 20260507002020 | 10 | 0.0 | 0.0 | 0.00 | 1.09 | 0.48 | 65 | 1014.5 | |
| 20260507001020 | 10 | 248 | 1.6 | 4.8 | 0.00 | 1.14 | 0.48 | 64 | 1014.5 |
| 20260507000020 | 11 | 248 | 1.6 | 3.2 | 0.00 | 1.17 | 0.48 | 62 | 1014.5 |
| 20260506235040 | 11 | 0.0 | 3.2 | 0.00 | 1.17 | 0.48 | 60 | 1014.5 | |
| 20260506234040 | 11 | 293 | 3.2 | 6.4 | 0.00 | 1.19 | 0.48 | 59 | 1014.5 |
| 20260506233018 | 11 | 315 | 1.6 | 6.4 | 0.00 | 1.19 | 0.48 | 59 | 1014.5 |
| 20260506232100 | 11 | 293 | 3.2 | 8.0 | 0.00 | 1.24 | 0.48 | 58 | 1014.7 |
| 20260506231020 | 11 | 293 | 3.2 | 4.8 | 0.00 | 1.27 | 0.48 | 59 | 1014.7 |
| 20260506230020 | 11 | 315 | 3.2 | 9.7 | 0.00 | 1.30 | 0.48 | 58 | 1014.8 |
| 20260506225019 | 11 | 270 | 4.8 | 12.9 | 0.00 | 1.32 | 0.48 | 57 | 1014.8 |
| 20260506224019 | 11 | 293 | 4.8 | 9.7 | 0.00 | 1.35 | 0.48 | 56 | 1014.7 |
| 20260506223020 | 11 | 293 | 3.2 | 11.3 | 0.00 | 1.40 | 0.48 | 56 | 1014.7 |
| 20260506222040 | 12 | 315 | 4.8 | 12.9 | 0.00 | 1.45 | 0.48 | 57 | 1014.7 |
| 20260506221040 | 12 | 315 | 6.4 | 19.3 | 0.00 | 1.50 | 0.48 | 56 | 1014.6 |
| 20260506220020 | 12 | 315 | 4.8 | 16.1 | 0.00 | 1.55 | 0.48 | 56 | 1014.7 |
| 20260506215019 | 12 | 270 | 4.8 | 12.9 | 0.00 | 1.55 | 0.48 | 55 | 1014.6 |
| 20260506214020 | 12 | 315 | 4.8 | 9.7 | 0.00 | 1.57 | 0.48 | 57 | 1014.6 |
| 20260506213040 | 12 | 315 | 4.8 | 12.9 | 0.00 | 1.57 | 0.48 | 54 | 1014.5 |
| 20260506212038 | 12 | 315 | 4.8 | 9.7 | 0.00 | 1.60 | 0.48 | 56 | 1014.2 |
| 20260506211019 | 11 | 270 | 3.2 | 12.9 | 0.00 | 1.63 | 0.48 | 55 | 1014.2 |
| 20260506210020 | 11 | 293 | 4.8 | 11.3 | 0.00 | 1.65 | 0.48 | 56 | 1014.2 |
| 20260506205038 | 11 | 315 | 4.8 | 12.9 | 0.00 | 1.73 | 0.48 | 57 | 1014.1 |
| 20260506204019 | 12 | 293 | 4.8 | 11.3 | 0.00 | 1.75 | 0.48 | 57 | 1014.2 |
| 20260506203019 | 12 | 293 | 4.8 | 12.9 | 0.00 | 1.80 | 0.48 | 56 | 1014.2 |
| 20260506202038 | 12 | 315 | 6.4 | 12.9 | 0.00 | 1.88 | 0.48 | 55 | 1014.2 |
| 20260506201018 | 12 | 293 | 8.0 | 16.1 | 0.00 | 1.93 | 0.48 | 54 | 1014.3 |
| 20260506200019 | 12 | 315 | 6.4 | 16.1 | 0.00 | 2.06 | 0.48 | 54 | 1014.3 |
| 20260506195019 | 12 | 293 | 8.0 | 17.7 | 0.00 | 2.08 | 0.48 | 53 | 1014.2 |
| 20260506194019 | 13 | 315 | 6.4 | 12.9 | 0.00 | 2.11 | 0.48 | 54 | 1014.2 |
| 20260506193018 | 13 | 315 | 9.7 | 16.1 | 0.00 | 2.16 | 0.48 | 55 | 1014.3 |
| 20260506192018 | 13 | 270 | 11.3 | 24.1 | 0.00 | 2.21 | 0.48 | 53 | 1014.2 |
| 20260506191058 | 13 | 315 | 8.0 | 16.1 | 0.00 | 2.26 | 0.48 | 50 | 1014.4 |
| 20260506190019 | 13 | 293 | 3.2 | 8.0 | 0.00 | 2.29 | 0.48 | 53 | 1014.3 |
| 20260506185018 | 12 | 293 | 4.8 | 16.1 | 0.00 | 2.34 | 0.48 | 54 | 1014.3 |
| 20260506184018 | 12 | 293 | 6.4 | 16.1 | 0.00 | 2.36 | 0.48 | 54 | 1014.5 |
| 20260506183018 | 12 | 270 | 8.0 | 17.7 | 0.00 | 2.39 | 0.48 | 53 | 1014.3 |
| 20260506182018 | 12 | 270 | 8.0 | 16.1 | 0.00 | 2.41 | 0.48 | 53 | 1014.0 |
| 20260506181018 | 12 | 293 | 8.0 | 16.1 | 0.00 | 2.44 | 0.48 | 54 | 1014.2 |
| 20260506180018 | 13 | 270 | 6.4 | 17.7 | 0.00 | 2.44 | 0.48 | 52 | 1014.2 |
| 20260506175018 | 13 | 293 | 8.0 | 16.1 | 0.00 | 2.44 | 0.48 | 54 | 1014.3 |
| 20260506174018 | 13 | 293 | 8.0 | 19.3 | 0.00 | 2.44 | 0.48 | 53 | 1014.4 |
| 20260506173020 | 13 | 293 | 6.4 | 12.9 | 0.00 | 2.46 | 0.48 | 54 | 1014.6 |
| 20260506172018 | 13 | 315 | 6.4 | 14.5 | 0.00 | 2.51 | 0.48 | 56 | 1014.4 |
| 20260506171018 | 13 | 315 | 4.8 | 11.3 | 0.00 | 2.54 | 0.48 | 58 | 1014.3 |
| 20260506170020 | 13 | 270 | 6.4 | 12.9 | 0.00 | 2.59 | 0.48 | 54 | 1014.5 |
| 20260506165018 | 14 | 315 | 6.4 | 16.1 | 0.00 | 2.62 | 0.48 | 54 | 1014.7 |
| 20260506164058 | 13 | 315 | 6.4 | 14.5 | 0.00 | 2.62 | 0.48 | 59 | 1014.7 |
| 20260506163040 | 13 | 293 | 3.2 | 9.7 | 0.00 | 2.62 | 0.48 | 52 | 1014.2 |
| 20260506162020 | 12 | 315 | 4.8 | 12.9 | 0.00 | 2.62 | 0.48 | 56 | 1014.6 |
| 20260506161019 | 13 | 315 | 6.4 | 16.1 | 0.00 | 2.62 | 0.48 | 58 | 1014.7 |
| 20260506160020 | 13 | 315 | 6.4 | 14.5 | 0.00 | 2.62 | 0.48 | 57 | 1014.5 |
| 20260506155020 | 12 | 315 | 6.4 | 14.5 | 0.00 | 2.62 | 0.48 | 59 | 1014.3 |
| 20260506154020 | 13 | 315 | 4.8 | 16.1 | 0.00 | 2.62 | 0.48 | 61 | 1014.4 |
| 20260506153018 | 13 | 338 | 8.0 | 17.7 | 0.00 | 2.62 | 0.48 | 67 | 1014.3 |
| 20260506152020 | 12 | 338 | 8.0 | 17.7 | 0.00 | 2.62 | 0.48 | 64 | 1014.1 |
| 20260506151019 | 12 | 315 | 6.4 | 16.1 | 0.00 | 2.62 | 0.48 | 66 | 1013.9 |
| 20260506150020 | 12 | 0 | 8.0 | 16.1 | 0.00 | 2.62 | 0.48 | 68 | 1013.8 |
| 20260506145020 | 12 | 315 | 6.4 | 19.3 | 0.00 | 2.62 | 0.48 | 71 | 1013.7 |
| 20260506144019 | 11 | 0 | 4.8 | 14.5 | 0.00 | 2.62 | 0.48 | 71 | 1013.7 |
| 20260506143019 | 11 | 315 | 9.7 | 20.9 | 0.00 | 2.62 | 0.48 | 70 | 1013.6 |
| 20260506142018 | 11 | 315 | 4.8 | 12.9 | 0.00 | 2.62 | 0.48 | 77 | 1013.4 |
| 20260506141019 | 11 | 315 | 8.0 | 17.7 | 0.00 | 2.62 | 0.48 | 78 | 1013.1 |
| 20260506140019 | 10 | 315 | 6.4 | 16.1 | 0.00 | 2.62 | 0.48 | 82 | 1013.0 |
| 20260506135019 | 10 | 315 | 4.8 | 16.1 | 0.00 | 2.62 | 0.48 | 85 | 1013.0 |
| 20260506134039 | 10 | 315 | 9.7 | 17.7 | 0.00 | 2.62 | 0.48 | 88 | 1013.0 |
| 20260506133019 | 9 | 293 | 4.8 | 12.9 | 0.00 | 2.62 | 0.48 | 91 | 1013.1 |
| 20260506132019 | 8 | 315 | 4.8 | 12.9 | 0.00 | 2.62 | 0.48 | 92 | 1013.0 |
| 20260506131019 | 8 | 293 | 4.8 | 9.7 | 0.00 | 2.62 | 0.48 | 94 | 1012.9 |
| 20260506130019 | 8 | 315 | 4.8 | 11.3 | 0.00 | 2.62 | 0.48 | 94 | 1012.7 |
| 20260506125018 | 7 | 270 | 4.8 | 11.3 | 0.00 | 2.62 | 0.48 | 95 | 1012.6 |
| 20260506124018 | 7 | 293 | 4.8 | 11.3 | 0.00 | 2.62 | 0.48 | 95 | 1012.3 |
| 20260506123018 | 7 | 315 | 4.8 | 12.9 | 0.00 | 2.62 | 0.48 | 95 | 1012.1 |
| 20260506122019 | 7 | 293 | 3.2 | 6.4 | 0.00 | 2.62 | 0.48 | 95 | 1012.1 |
| 20260506121018 | 7 | 293 | 4.8 | 14.5 | 0.00 | 2.62 | 0.48 | 95 | 1012.1 |
| 20260506120018 | 7 | 315 | 4.8 | 11.3 | 0.00 | 2.62 | 0.48 | 95 | 1011.8 |
| 20260506115018 | 7 | 270 | 4.8 | 12.9 | 0.00 | 2.62 | 0.48 | 95 | 1011.8 |
| 20260506114019 | 7 | 315 | 3.2 | 6.4 | 0.00 | 2.62 | 0.48 | 95 | 1011.4 |
| 20260506113019 | 6 | 270 | 1.6 | 6.4 | 0.00 | 2.62 | 0.48 | 95 | 1011.2 |
| 20260506112018 | 6 | 293 | 1.6 | 4.8 | 0.00 | 2.62 | 0.48 | 95 | 1011.1 |
| 20260506111018 | 6 | 270 | 1.6 | 4.8 | 0.00 | 2.62 | 0.48 | 95 | 1011.0 |
| 20260506110018 | 6 | 270 | 1.6 | 4.8 | 0.00 | 2.62 | 0.48 | 95 | 1011.0 |
| 20260506105018 | 6 | 270 | 1.6 | 4.8 | 0.00 | 2.62 | 0.48 | 95 | 1010.9 |
| 20260506104018 | 6 | 270 | 1.6 | 4.8 | 0.03 | 2.62 | 0.48 | 95 | 1011.0 |
| 20260506103038 | 6 | 315 | 3.2 | 6.4 | 0.03 | 2.62 | 0.48 | 95 | 1010.8 |
| 20260506102019 | 6 | 293 | 1.6 | 3.2 | 0.03 | 2.62 | 0.48 | 95 | 1010.6 |
| 20260506101018 | 6 | 293 | 1.6 | 3.2 | 0.03 | 2.62 | 0.48 | 95 | 1010.5 |
| 20260506100018 | 6 | 315 | 1.6 | 3.2 | 0.03 | 2.62 | 0.48 | 95 | 1010.2 |
| 20260506095020 | 6 | 0.0 | 3.2 | 0.03 | 2.62 | 0.48 | 95 | 1009.9 | |
| 20260506094059 | 6 | 0.0 | 3.2 | 0.00 | 2.59 | 0.46 | 95 | 1010.1 | |
| 20260506093018 | 6 | 0.0 | 0.0 | 0.00 | 2.59 | 0.46 | 95 | 1010.0 | |
| 20260506092040 | 6 | 0.0 | 1.6 | 0.00 | 2.59 | 0.46 | 95 | 1010.0 | |
| 20260506091038 | 6 | 315 | 1.6 | 4.8 | 0.00 | 2.59 | 0.46 | 95 | 1010.2 |
| 20260506090018 | 6 | 315 | 4.8 | 9.7 | 0.00 | 2.59 | 0.46 | 95 | 1010.7 |
| 20260506085018 | 6 | 315 | 1.6 | 4.8 | 0.00 | 2.59 | 0.46 | 95 | 1010.1 |
| 20260506084020 | 6 | 0.0 | 1.6 | 0.00 | 2.59 | 0.46 | 95 | 1009.9 | |
| 20260506083018 | 6 | 0.0 | 3.2 | 0.00 | 2.59 | 0.46 | 95 | 1010.0 | |
| 20260506082020 | 6 | 0.0 | 3.2 | 0.03 | 2.59 | 0.46 | 95 | 1010.2 | |
| 20260506081018 | 6 | 315 | 1.6 | 3.2 | 0.03 | 2.59 | 0.46 | 95 | 1010.4 |
| 20260506073018 | 6 | 293 | 1.6 | 4.8 | 0.10 | 2.59 | 0.46 | 95 | 1009.7 |
| 20260506072019 | 6 | 0.0 | 0.0 | 0.08 | 2.57 | 0.43 | 95 | 1009.7 | |
| 20260506071019 | 6 | 315 | 3.2 | 8.0 | 0.10 | 2.57 | 0.43 | 95 | 1009.8 |
| 20260506062019 | 7 | 0.0 | 3.2 | 0.15 | 2.49 | 0.36 | 95 | 1010.2 | |
| 20260506061018 | 6 | 0 | 1.6 | 6.4 | 0.18 | 2.46 | 0.33 | 95 | 1010.0 |